Regional Weather Roundup
Issued by NWS Albany, NY

Home | Current Version | Previous Version | Text Only | Print | Product List | Glossary On
Versions: 1 2 3 4 5 6 7 8 9 10 11 12 13 14 15 16 17 18 19 20 21 22 23 24 25 26 27
000
ASUS41 KALY 120410
RWRALY

NEW YORK STATE HOURLY WEATHER ROUNDUP
NATIONAL WEATHER SERVICE ALBANY NY
1100 PM EST MON DEC 11 2017

NOTE: "FAIR" INDICATES FEW OR NO CLOUDS BELOW 12,000 FEET WITH NO
SIGNIFICANT WEATHER AND/OR NO OBSTRUCTIONS TO VISIBILITY.

NYZ032-033-038>043-046>054-057>066-NYZ062>081-082-084-120500-
EAST


CITY           SKY/WX    TMP DP  RH WIND       PRES   REMARKS
ALBANY         CLOUDY    30  19  63 CALM      29.95F
GLENS FALLS    CLOUDY    24  18  77 NE3       29.94F
POUGHKEEPSIE   CLOUDY    32  23  69 CALM      29.95F
NEWBURGH       MOCLDY    34  25  69 CALM      29.94F
MONTGOMERY     CLOUDY    31  25  78 CALM      29.92F
WHITE PLAINS   CLOUDY    34  23  64 CALM      29.94F
ISLIP          CLOUDY    33  27  78 CALM      29.98F
NEW YORK CITY  CLOUDY    40  22  48 S5        29.96F
CENTRAL PARK   CLOUDY    39  23  52 VRB5      29.98F
$$

NYZ005>009-017-018-044>046-055-056-120500-
CENTRAL


CITY           SKY/WX    TMP DP  RH WIND       PRES   REMARKS
FULTON         LGT SNOW  27  22  81 VRB5      29.82F WCI  22
SYRACUSE       LGT SNOW  25  22  88 E7        29.83F FOG     WCI  17
ROME           LGT SNOW  25  20  81 E7        29.88F WCI  17
ELMIRA         CLOUDY    32  24  72 E5        29.76F WCI  27
BINGHAMTON     FLURRIES  27  19  72 S9        29.76F WCI  18
MONTICELLO     MOCLDY    28  19  69 SE8       29.87F WCI  20
$$

NYZ026>034-041>043-087-120500-
NORTH


CITY           SKY/WX    TMP DP  RH WIND       PRES   REMARKS
WATERTOWN      CLOUDY    22  17  81 NE6       29.83F WCI  14
FORT DRUM      NOT AVBL
OGDENSBURG     LGT SNOW  18  12  76 NE8       29.91S WCI   8
MASSENA        CLOUDY    18   8  65 E8        29.95F WCI   8
SARANAC LAKE   CLOUDY    11   8  88 NE5       29.81F WCI   3
PLATTSBURGH    NOT AVBL
$$

NYZ001>004-010>016-019>021-085-120500-
WEST


CITY           SKY/WX    TMP DP  RH WIND       PRES   REMARKS
NIAGARA FALLS  LGT SNOW  28  22  78 E5        29.72F WCI  23
BUFFALO        LGT SNOW  27  25  92 SE5       29.72F FOG     WCI  22
DUNKIRK        LGT SNOW  30  28  92 SW7       29.71F VSB 1   WCI  23
JAMESTOWN      CLOUDY    27  25  93 SW3       29.66F
WELLSVILLE     CLOUDY    29  24  82 S3        29.68F HAZE
ROCHESTER      LGT SNOW  27  25  92 SE9       29.76F FOG     WCI  18
PENN YAN       LGT SNOW  28  24  85 SE6       29.76F FOG     WCI  22
$$

             KEY
       WCI = WIND CHILL INDEX
       VSB = VISIBILITY
       HX  = HEAT INDEX
$$




USA.gov is the U.S. government's official web portal to all federal, state and local government web resources and services.